Home   Weather   Fort Collins   Past weeks

Flag for USA Past Weather in Fort Collins, Colorado, USA — Yesterday and Last 2 Weeks

64 °F


Feels Like: 64 °F
Forecast: 51 / 69 °F
Wind: 6 mph from North

Location: Fort Collins-Loveland Municipal Airport

Current Time: Oct 25, 2016 at 1:12:06 PM

Latest Report: Oct 25, 2016 at 12:35 PM

Visibility: 10 mi

Pressure: 30.10 "Hg (25.18 "Hg at 1522m altitude)

Humidity: 34%

Dew Point: 36 °F

Location of Fort CollinsLocation

Past Weather in Fort Collins — Graph


Fort Collins Temperature Yesterday

Maximum temperature yesterday: 77 °F (at 3:15 PM)
Minimum temperature yesterday: 39 °F (at 5:55 AM)
Average temperature yesterday: 56 °F

High & Low Weather Summary for the Past Weeks

High84 °F (Oct 15, 3:35 PM)100% (Oct 12, 1:35 AM)30.49 "Hg (Oct 12, 1:35 AM)
Low30 °F (Oct 20, 5:35 AM)11% (Oct 21, 3:35 PM)29.56 "Hg (Oct 17, 7:55 AM)
Average55 °F46%30.05 "Hg
* Reported Oct 10 11:15 AM — Oct 25 11:55 AM, Fort Collins, Weather by CustomWeather, © 2016

Note: Actual official high and low records may vary slightly from our data, if they occured in-between our weather recording intervals... More about our weather records


Fort Collins Weather History for the Previous 24 Hours

Scroll right to see more
Time TempWeatherWind HumidityBarometerVisibility
11:55 AM
Tue, Oct 25
64 °FSunny.3 mph32%30.10 "Hg10 mi
11:35 AM63 °FSunny.5 mph34%30.10 "Hg10 mi
10:55 AM59 °FSunny.7 mph42%30.10 "Hg10 mi
10:35 AM59 °FSunny.6 mph45%30.10 "Hg10 mi
10:15 AM59 °FSunny.6 mph42%30.10 "Hg10 mi
9:55 AM57 °FSunny.3 mph44%30.10 "Hg10 mi
9:35 AM54 °FSunny.5 mph54%30.10 "Hg10 mi
8:55 AM54 °FSunny.No wind51%30.09 "Hg10 mi
8:35 AM52 °FSunny.3 mph58%30.09 "Hg10 mi
8:15 AM50 °FSunny.7 mph62%30.08 "Hg10 mi
7:35 AM48 °FSunny.3 mph62%30.07 "Hg10 mi
7:15 AM46 °FClear.3 mph66%30.08 "Hg10 mi
6:55 AM46 °FClear.6 mph62%30.07 "Hg10 mi
6:35 AM48 °FClear.No wind54%30.07 "Hg10 mi
6:15 AM48 °FClear.No wind54%30.07 "Hg10 mi
5:55 AM52 °FClear.5 mph47%30.06 "Hg10 mi
5:35 AM52 °FClear.6 mph50%30.05 "Hg10 mi
5:15 AM50 °FClear.5 mph54%30.06 "Hg10 mi
4:55 AM48 °FClear.No wind62%30.06 "Hg10 mi
4:35 AM48 °FClear.No wind66%30.06 "Hg10 mi
4:15 AM48 °FClear.No wind62%30.06 "Hg10 mi
3:55 AM46 °FClear.5 mph66%30.06 "Hg10 mi
3:35 AM48 °FClear.No wind58%30.06 "Hg10 mi
3:15 AM46 °FClear.5 mph66%30.07 "Hg10 mi
2:55 AM48 °FClear.No wind58%30.08 "Hg10 mi
2:35 AM48 °FClear.No wind58%30.08 "Hg10 mi
2:15 AM48 °FClear.No wind58%30.08 "Hg10 mi
1:55 AM48 °FClear.No wind54%30.08 "Hg10 mi
1:35 AM46 °FClear.No wind53%30.08 "Hg10 mi
1:15 AM46 °FClear.No wind53%30.09 "Hg10 mi
12:55 AM50 °FClear.8 mph47%30.09 "Hg10 mi
12:35 AM48 °FClear.8 mph50%30.09 "Hg10 mi
12:15 AM52 °FClear.7 mph44%30.10 "Hg10 mi
11:55 PM
Mon, Oct 24
52 °FClear.8 mph44%30.10 "Hg10 mi
11:35 PM52 °FClear.7 mph44%30.10 "Hg10 mi
11:15 PM52 °FClear.8 mph44%30.11 "Hg10 mi
10:55 PM52 °FClear.8 mph44%30.11 "Hg10 mi
10:35 PM52 °FClear.7 mph44%30.12 "Hg10 mi
9:55 PM55 °FClear.8 mph38%30.13 "Hg10 mi
9:35 PM55 °FClear.7 mph38%30.13 "Hg10 mi
9:15 PM59 °FClear.7 mph34%30.13 "Hg10 mi
8:55 PM59 °FClear.6 mph31%30.13 "Hg10 mi
8:35 PM61 °FClear.6 mph29%30.13 "Hg10 mi
8:15 PM61 °FClear.No wind31%30.14 "Hg10 mi
7:55 PM59 °FClear.No wind34%30.14 "Hg10 mi
7:35 PM61 °FClear.5 mph29%30.14 "Hg10 mi
6:55 PM63 °FClear.3 mph27%30.13 "Hg10 mi
6:35 PM66 °FClear.9 mph24%30.12 "Hg9 mi
6:15 PM66 °FClear.9 mph24%30.11 "Hg10 mi
5:55 PM70 °FSunny.10 mph20%30.11 "Hg10 mi
5:15 PM75 °FSunny.9 mph16%30.11 "Hg10 mi
4:55 PM77 °FSunny.9 mph15%30.11 "Hg10 mi
4:35 PM77 °FSunny.10 mph15%30.11 "Hg10 mi
4:15 PM77 °FSunny.12 mph17%30.11 "Hg10 mi
3:55 PM77 °FSunny.12 mph18%30.11 "Hg10 mi
3:35 PM77 °FSunny.12 mph18%30.12 "Hg10 mi
3:15 PM77 °FSunny.8 mph18%30.13 "Hg10 mi
2:55 PM73 °FSunny.5 mph20%30.15 "Hg10 mi
2:35 PM73 °FSunny.6 mph20%30.15 "Hg10 mi
2:15 PM72 °FSunny.7 mph22%30.16 "Hg10 mi
1:55 PM72 °FSunny.6 mph22%30.17 "Hg10 mi
1:35 PM72 °FSunny.6 mph22%30.18 "Hg10 mi
1:15 PM72 °FSunny.8 mph25%30.19 "Hg9 mi
Weather by CustomWeather, © 2016

See weather overviewHow to use our weather pages